| time (UTC) | temp F | wind direction | speed knots | gust knots | rain 1hr in | rain 24hr in | rain mn in | humidity % | barometer mb |
| 20260503185355 | 59 | 229 | 2.6 | 11.3 | 0.00 | 0.00 | 0.00 | 37 | 1015.3 |
| 20260503185256 | 59 | 187 | 5.2 | 11.3 | 0.00 | 0.00 | 0.00 | 39 | 1015.4 |
| 20260503185156 | 59 | 175 | 2.6 | 9.6 | 0.00 | 0.00 | 0.00 | 39 | 1015.3 |
| 20260503185055 | 59 | 186 | 1.7 | 9.6 | 0.00 | 0.00 | 0.00 | 38 | 1015.3 |
| 20260503184955 | 59 | 217 | 9.6 | 9.6 | 0.00 | 0.00 | 0.00 | 40 | 1015.4 |
| 20260503184856 | 59 | 190 | 3.5 | 8.7 | 0.00 | 0.00 | 0.00 | 39 | 1015.3 |
| 20260503184755 | 59 | 221 | 2.6 | 8.7 | 0.00 | 0.00 | 0.00 | 42 | 1015.5 |
| 20260503184554 | 59 | 169 | 1.7 | 10.4 | 0.00 | 0.00 | 0.00 | 38 | 1015.5 |
| 20260503184455 | 59 | 263 | 0.9 | 10.4 | 0.00 | 0.00 | 0.00 | 38 | 1015.4 |
| 20260503184355 | 59 | 355 | 3.5 | 10.4 | 0.00 | 0.00 | 0.00 | 39 | 1015.3 |
| 20260503184255 | 59 | 200 | 2.6 | 10.4 | 0.00 | 0.00 | 0.00 | 41 | 1015.5 |
| 20260503184156 | 59 | 203 | 1.7 | 10.4 | 0.00 | 0.00 | 0.00 | 45 | 1015.5 |
| 20260503184055 | 59 | 283 | 1.7 | 10.4 | 0.00 | 0.00 | 0.00 | 41 | 1015.6 |
| 20260503183955 | 59 | 252 | 1.7 | 10.4 | 0.00 | 0.00 | 0.00 | 41 | 1015.5 |
| 20260503183755 | 60 | 227 | 6.1 | 10.4 | 0.00 | 0.00 | 0.00 | 39 | 1015.6 |
| 20260503183555 | 59 | 257 | 1.7 | 7.0 | 0.00 | 0.00 | 0.00 | 40 | 1015.6 |
| 20260503183454 | 59 | 232 | 1.7 | 7.0 | 0.00 | 0.00 | 0.00 | 41 | 1015.6 |
| 20260503183355 | 60 | 235 | 2.6 | 7.0 | 0.00 | 0.00 | 0.00 | 44 | 1015.6 |
| 20260503183255 | 59 | 221 | 2.6 | 7.0 | 0.00 | 0.00 | 0.00 | 39 | 1015.5 |
| 20260503183156 | 59 | 243 | 0.9 | 7.0 | 0.00 | 0.00 | 0.00 | 43 | 1015.6 |
| 20260503183056 | 59 | 269 | 2.6 | 7.0 | 0.00 | 0.00 | 0.00 | 48 | 1015.5 |
| 20260503182854 | 57 | 198 | 4.3 | 7.8 | 0.00 | 0.00 | 0.00 | 46 | 1015.7 |
| 20260503182755 | 57 | 229 | 0.9 | 7.8 | 0.00 | 0.00 | 0.00 | 43 | 1015.7 |
| 20260503182655 | 57 | 247 | 1.7 | 7.8 | 0.00 | 0.00 | 0.00 | 42 | 1015.6 |
| 20260503182454 | 58 | 281 | 1.7 | 7.8 | 0.00 | 0.00 | 0.00 | 39 | 1015.6 |
| 20260503182354 | 58 | 254 | 1.7 | 9.6 | 0.00 | 0.00 | 0.00 | 42 | 1015.7 |
| 20260503182255 | 58 | 254 | 1.7 | 12.2 | 0.00 | 0.00 | 0.00 | 42 | 1015.5 |
| 20260503182154 | 58 | 227 | 3.5 | 12.2 | 0.00 | 0.00 | 0.00 | 43 | 1015.6 |
| 20260503182054 | 57 | 222 | 6.1 | 12.2 | 0.00 | 0.00 | 0.00 | 46 | 1015.6 |
| 20260503181954 | 57 | 232 | 2.6 | 12.2 | 0.00 | 0.00 | 0.00 | 44 | 1015.6 |
| 20260503181855 | 57 | 180 | 2.6 | 12.2 | 0.00 | 0.00 | 0.00 | 42 | 1015.6 |
| 20260503181654 | 57 | 298 | 1.7 | 12.2 | 0.00 | 0.00 | 0.00 | 41 | 1015.6 |
| 20260503181556 | 58 | 256 | 2.6 | 12.2 | 0.00 | 0.00 | 0.00 | 40 | 1015.6 |
| 20260503181455 | 58 | 241 | 3.5 | 12.2 | 0.00 | 0.00 | 0.00 | 41 | 1015.7 |
| 20260503181354 | 58 | 275 | 2.6 | 4.3 | 0.00 | 0.00 | 0.00 | 43 | 1015.8 |
| 20260503181255 | 57 | 246 | 3.5 | 3.5 | 0.00 | 0.00 | 0.00 | 47 | 1015.7 |
| 20260503181155 | 57 | 224 | 1.7 | 6.1 | 0.00 | 0.00 | 0.00 | 47 | 1015.8 |
| 20260503181055 | 56 | 206 | 2.6 | 7.8 | 0.00 | 0.00 | 0.00 | 46 | 1015.7 |
| 20260503180955 | 56 | 282 | 1.7 | 7.8 | 0.00 | 0.00 | 0.00 | 44 | 1015.8 |
| 20260503180854 | 56 | 172 | 0.9 | 7.8 | 0.00 | 0.00 | 0.00 | 42 | 1015.8 |
| 20260503180755 | 56 | 261 | 1.7 | 11.3 | 0.00 | 0.00 | 0.00 | 41 | 1015.8 |
| 20260503180655 | 56 | 241 | 2.6 | 11.3 | 0.00 | 0.00 | 0.00 | 43 | 1015.9 |
| 20260503180556 | 56 | 306 | 0.9 | 11.3 | 0.00 | 0.00 | 0.00 | 43 | 1015.8 |
| 20260503180455 | 56 | 255 | 1.7 | 11.3 | 0.00 | 0.00 | 0.00 | 40 | 1015.8 |
| 20260503180355 | 56 | 281 | 1.7 | 11.3 | 0.00 | 0.00 | 0.00 | 44 | 1015.9 |
| 20260503180155 | 57 | 249 | 7.8 | 11.3 | 0.00 | 0.00 | 0.00 | 41 | 1015.9 |
| 20260503180055 | 56 | 267 | 2.6 | 11.3 | 0.00 | 0.00 | 0.00 | 42 | 1015.9 |
| 20260503175955 | 56 | 246 | 6.1 | 11.3 | 0.00 | 0.00 | 0.00 | 40 | 1015.9 |
| 20260503175856 | 56 | 194 | 4.3 | 8.7 | 0.00 | 0.00 | 0.00 | 42 | 1015.9 |
| 20260503175756 | 57 | 284 | 1.7 | 7.0 | 0.00 | 0.00 | 0.00 | 44 | 1015.8 |
| 20260503175555 | 57 | 209 | 2.6 | 7.0 | 0.00 | 0.00 | 0.00 | 41 | 1015.8 |
| 20260503175455 | 57 | 210 | 5.2 | 7.0 | 0.00 | 0.00 | 0.00 | 41 | 1015.9 |
| 20260503175355 | 57 | 180 | 2.6 | 5.2 | 0.00 | 0.00 | 0.00 | 42 | 1015.9 |
| 20260503175155 | 56 | 309 | 1.7 | 7.8 | 0.00 | 0.00 | 0.00 | 43 | 1015.9 |
| 20260503175057 | 56 | 193 | 1.7 | 7.8 | 0.00 | 0.00 | 0.00 | 42 | 1016.0 |
| 20260503174955 | 56 | 273 | 1.7 | 7.8 | 0.00 | 0.00 | 0.00 | 43 | 1016.0 |
| 20260503174855 | 56 | 237 | 1.7 | 7.8 | 0.00 | 0.00 | 0.00 | 43 | 1015.9 |
| 20260503174754 | 57 | 211 | 0.9 | 7.8 | 0.00 | 0.00 | 0.00 | 42 | 1015.9 |
| 20260503174654 | 57 | 169 | 1.7 | 9.6 | 0.00 | 0.00 | 0.00 | 42 | 1016.0 |
| 20260503174554 | 57 | 222 | 0.9 | 9.6 | 0.00 | 0.00 | 0.00 | 40 | 1015.9 |
| 20260503174455 | 57 | 163 | 3.5 | 9.6 | 0.00 | 0.00 | 0.00 | 40 | 1016.0 |
| 20260503174356 | 58 | 232 | 1.7 | 9.6 | 0.00 | 0.00 | 0.00 | 42 | 1015.9 |
| 20260503174255 | 58 | 279 | 2.6 | 9.6 | 0.00 | 0.00 | 0.00 | 39 | 1016.0 |
| 20260503174155 | 58 | 223 | 4.3 | 10.4 | 0.00 | 0.00 | 0.00 | 41 | 1016.0 |
| 20260503173955 | 59 | 155 | 2.6 | 10.4 | 0.00 | 0.00 | 0.00 | 41 | 1016.0 |
| 20260503173855 | 58 | 279 | 1.7 | 10.4 | 0.00 | 0.00 | 0.00 | 45 | 1016.0 |
| 20260503173755 | 58 | 244 | 2.6 | 10.4 | 0.00 | 0.00 | 0.00 | 41 | 1015.9 |
| 20260503173655 | 58 | 296 | 1.7 | 10.4 | 0.00 | 0.00 | 0.00 | 43 | 1016.0 |
| 20260503173554 | 58 | 253 | 3.5 | 10.4 | 0.00 | 0.00 | 0.00 | 44 | 1016.0 |
| 20260503173455 | 57 | 248 | 0.9 | 10.4 | 0.00 | 0.00 | 0.00 | 43 | 1016.1 |
| 20260503173356 | 57 | 231 | 2.6 | 10.4 | 0.00 | 0.00 | 0.00 | 42 | 1016.1 |
| 20260503173156 | 57 | 207 | 7.0 | 9.6 | 0.00 | 0.00 | 0.00 | 40 | 1016.1 |
| 20260503173054 | 57 | 207 | 5.2 | 9.6 | 0.00 | 0.00 | 0.00 | 40 | 1016.1 |
| 20260503172855 | 57 | 175 | 2.6 | 8.7 | 0.00 | 0.00 | 0.00 | 41 | 1016.2 |
| 20260503172756 | 57 | 239 | 3.5 | 8.7 | 0.00 | 0.00 | 0.00 | 40 | 1016.1 |
| 20260503172655 | 57 | 190 | 3.5 | 11.3 | 0.00 | 0.00 | 0.00 | 43 | 1016.1 |
| 20260503172454 | 57 | 284 | 1.7 | 12.2 | 0.00 | 0.00 | 0.00 | 44 | 1016.2 |
| 20260503172254 | 56 | 225 | 1.7 | 12.2 | 0.00 | 0.00 | 0.00 | 40 | 1016.2 |
| 20260503172055 | 57 | 224 | 1.7 | 12.2 | 0.00 | 0.00 | 0.00 | 43 | 1016.2 |
| 20260503171656 | 57 | 170 | 9.6 | 11.3 | 0.00 | 0.00 | 0.00 | 45 | 1016.1 |
| 20260503171455 | 57 | 177 | 0.9 | 11.3 | 0.00 | 0.00 | 0.00 | 41 | 1016.1 |
| 20260503171355 | 57 | 241 | 1.7 | 11.3 | 0.00 | 0.00 | 0.00 | 46 | 1016.1 |
| 20260503171056 | 57 | 254 | 3.5 | 7.0 | 0.00 | 0.00 | 0.00 | 43 | 1016.3 |
| 20260503170955 | 57 | 197 | 2.6 | 7.0 | 0.00 | 0.00 | 0.00 | 41 | 1016.3 |
| 20260503170855 | 57 | 177 | 4.3 | 9.6 | 0.00 | 0.00 | 0.00 | 45 | 1016.3 |
| 20260503170755 | 57 | 192 | 3.5 | 9.6 | 0.00 | 0.00 | 0.00 | 46 | 1016.3 |
| 20260503170655 | 56 | 265 | 1.7 | 9.6 | 0.00 | 0.00 | 0.00 | 41 | 1016.3 |
| 20260503170556 | 56 | 169 | 3.5 | 9.6 | 0.00 | 0.00 | 0.00 | 39 | 1016.2 |
| 20260503170456 | 56 | 260 | 1.7 | 9.6 | 0.00 | 0.00 | 0.00 | 43 | 1016.3 |
| 20260503170356 | 56 | 222 | 0.9 | 9.6 | 0.00 | 0.00 | 0.00 | 46 | 1016.3 |
| 20260503170255 | 56 | 266 | 0.9 | 9.6 | 0.00 | 0.00 | 0.00 | 39 | 1016.3 |
| 20260503170154 | 57 | 222 | 2.6 | 9.6 | 0.00 | 0.00 | 0.00 | 38 | 1016.4 |
| 20260503160154 | 55 | 214 | 2.6 | 8.7 | 0.00 | 0.00 | 0.00 | 43 | 1016.8 |
| 20260503150853 | 53 | 236 | 1.7 | 12.2 | 0.00 | 0.00 | 0.00 | 48 | 1017.1 |
| 20260503150755 | 53 | 319 | 3.5 | 12.2 | 0.00 | 0.00 | 0.00 | 46 | 1017.2 |
| 20260503150654 | 53 | 263 | 1.7 | 7.8 | 0.00 | 0.00 | 0.00 | 45 | 1017.2 |
| 20260503150554 | 53 | 192 | 0.9 | 7.8 | 0.00 | 0.00 | 0.00 | 45 | 1017.1 |
| 20260503150455 | 52 | 228 | 1.7 | 7.8 | 0.00 | 0.00 | 0.00 | 44 | 1017.2 |
| 20260503150355 | 52 | 179 | 4.3 | 7.8 | 0.00 | 0.00 | 0.00 | 47 | 1017.2 |
| 20260503150256 | 52 | 282 | 0.9 | 7.8 | 0.00 | 0.00 | 0.00 | 47 | 1017.2 |
| 20260503150156 | 52 | 250 | 0.9 | 7.8 | 0.00 | 0.00 | 0.00 | 48 | 1017.2 |
| 20260503140255 | 49 | 175 | 9.6 | 9.6 | 0.00 | 0.00 | 0.00 | 56 | 1017.6 |
| 20260503140155 | 49 | 232 | 1.7 | 6.1 | 0.00 | 0.00 | 0.00 | 54 | 1017.7 |
| 20260503131355 | 45 | 259 | 0.9 | 8.7 | 0.00 | 0.00 | 0.00 | 64 | 1017.8 |
| 20260503131255 | 45 | 258 | 0.9 | 8.7 | 0.00 | 0.00 | 0.00 | 66 | 1017.7 |
| 20260503131055 | 45 | 215 | 4.3 | 8.7 | 0.00 | 0.00 | 0.00 | 65 | 1017.8 |
| 20260503130854 | 45 | 259 | 1.7 | 7.0 | 0.00 | 0.00 | 0.00 | 64 | 1017.8 |
| 20260503130754 | 45 | 166 | 4.3 | 6.1 | 0.00 | 0.00 | 0.00 | 66 | 1017.9 |
| 20260503130655 | 45 | 232 | 1.7 | 6.1 | 0.00 | 0.00 | 0.00 | 67 | 1017.8 |
| 20260503130554 | 45 | 220 | 0.9 | 6.1 | 0.00 | 0.00 | 0.00 | 68 | 1017.8 |
| 20260503130454 | 45 | 190 | 0.9 | 6.1 | 0.00 | 0.00 | 0.00 | 65 | 1017.8 |
| 20260503130355 | 45 | 207 | 0.9 | 6.1 | 0.00 | 0.00 | 0.00 | 67 | 1017.7 |
| 20260503130256 | 45 | 224 | 4.3 | 6.1 | 0.00 | 0.00 | 0.00 | 65 | 1017.8 |
| 20260503130155 | 45 | 282 | 2.6 | 6.1 | 0.00 | 0.00 | 0.00 | 70 | 1017.9 |
| 20260503120154 | 36 | 207 | 0.9 | 1.7 | 0.00 | 0.00 | 0.00 | 89 | 1017.4 |
| 20260503110754 | 31 | 32 | 0.0 | 0.0 | 0.00 | 0.00 | 0.00 | 95 | 1017.1 |
| 20260503110655 | 31 | 32 | 0.0 | 0.0 | 0.00 | 0.00 | 0.00 | 95 | 1017.1 |
| 20260503110355 | 31 | 32 | 0.0 | 0.0 | 0.00 | 0.00 | 0.00 | 94 | 1017.0 |
| 20260503110255 | 31 | 32 | 0.0 | 0.0 | 0.00 | 0.00 | 0.00 | 94 | 1017.0 |
| 20260503110155 | 31 | 32 | 0.0 | 0.0 | 0.00 | 0.00 | 0.00 | 94 | 1017.0 |
| 20260503100255 | 30 | 32 | 0.0 | 0.0 | 0.00 | 0.00 | 0.00 | 94 | 1016.3 |
| 20260503100154 | 30 | 32 | 0.0 | 0.0 | 0.00 | 0.00 | 0.00 | 94 | 1016.3 |
| 20260503090454 | 31 | 32 | 0.0 | 0.0 | 0.00 | 0.00 | 0.00 | 93 | 1016.3 |
| 20260503090253 | 31 | 32 | 0.0 | 0.0 | 0.00 | 0.00 | 0.00 | 93 | 1016.2 |
| 20260503081555 | 32 | 32 | 0.0 | 0.0 | 0.00 | 0.00 | 0.00 | 92 | 1016.3 |
| 20260503081454 | 32 | 32 | 0.0 | 0.0 | 0.00 | 0.00 | 0.00 | 92 | 1016.2 |
| 20260503081355 | 32 | 32 | 0.0 | 0.0 | 0.00 | 0.00 | 0.00 | 92 | 1016.3 |
| 20260503081255 | 32 | 32 | 0.0 | 0.0 | 0.00 | 0.00 | 0.00 | 92 | 1016.3 |
| 20260503081155 | 32 | 32 | 0.0 | 0.0 | 0.00 | 0.00 | 0.00 | 92 | 1016.3 |
| 20260503081055 | 33 | 32 | 0.0 | 0.0 | 0.00 | 0.00 | 0.00 | 92 | 1016.2 |
| 20260503080954 | 33 | 32 | 0.0 | 0.0 | 0.00 | 0.00 | 0.00 | 92 | 1016.3 |
| 20260503080855 | 33 | 32 | 0.0 | 0.0 | 0.00 | 0.00 | 0.00 | 92 | 1016.3 |
| 20260503080754 | 33 | 32 | 0.0 | 0.0 | 0.00 | 0.00 | 0.00 | 92 | 1016.3 |
| 20260503080555 | 33 | 32 | 0.0 | 0.0 | 0.00 | 0.00 | 0.00 | 92 | 1016.2 |
| 20260503080455 | 33 | 32 | 0.0 | 0.0 | 0.00 | 0.00 | 0.00 | 92 | 1016.2 |
| 20260503080354 | 33 | 32 | 0.0 | 0.0 | 0.00 | 0.00 | 0.00 | 92 | 1016.3 |
| 20260503080155 | 33 | 32 | 0.0 | 0.0 | 0.00 | 0.00 | 0.00 | 92 | 1016.3 |
| 20260503072854 | 33 | 32 | 0.0 | 0.0 | 0.00 | 0.00 | 0.00 | 92 | 1016.1 |
| 20260503072753 | 33 | 32 | 0.0 | 0.0 | 0.00 | 0.00 | 0.00 | 92 | 1016.0 |
| 20260503072652 | 33 | 32 | 0.0 | 0.0 | 0.00 | 0.00 | 0.00 | 92 | 1016.0 |
| 20260503072553 | 33 | 32 | 0.0 | 0.0 | 0.00 | 0.00 | 0.00 | 92 | 1016.0 |
| 20260503072453 | 33 | 32 | 0.0 | 0.0 | 0.00 | 0.00 | 0.00 | 92 | 1016.0 |
| 20260503072354 | 33 | 32 | 0.0 | 0.0 | 0.00 | 0.00 | 0.00 | 92 | 1016.0 |
| 20260503072254 | 33 | 32 | 0.0 | 0.0 | 0.00 | 0.00 | 0.00 | 93 | 1016.0 |
| 20260503072153 | 33 | 32 | 0.0 | 0.0 | 0.00 | 0.00 | 0.00 | 92 | 1016.0 |
| 20260503072055 | 33 | 32 | 0.0 | 0.0 | 0.00 | 0.00 | 0.00 | 92 | 1015.9 |
| 20260503071954 | 33 | 32 | 0.0 | 0.0 | 0.00 | 0.00 | 0.00 | 92 | 1015.9 |
| 20260503071853 | 33 | 32 | 0.0 | 0.0 | 0.00 | 0.00 | 0.00 | 92 | 1016.0 |
| 20260503071753 | 33 | 32 | 0.0 | 0.0 | 0.00 | 0.00 | 0.00 | 92 | 1016.0 |
| 20260503071654 | 33 | 32 | 0.0 | 0.0 | 0.00 | 0.00 | 0.00 | 93 | 1016.0 |
| 20260503071554 | 33 | 32 | 0.0 | 0.0 | 0.00 | 0.00 | 0.00 | 93 | 1016.0 |
| 20260503071454 | 33 | 32 | 0.0 | 0.0 | 0.00 | 0.00 | 0.00 | 93 | 1016.1 |
| 20260503071354 | 33 | 32 | 0.0 | 0.0 | 0.00 | 0.00 | 0.00 | 93 | 1016.0 |
| 20260503071053 | 33 | 32 | 0.0 | 0.0 | 0.00 | 0.00 | 0.00 | 93 | 1016.0 |
| 20260503070954 | 33 | 32 | 0.0 | 0.0 | 0.00 | 0.00 | 0.00 | 93 | 1015.9 |
| 20260503070853 | 33 | 32 | 0.0 | 0.0 | 0.00 | 0.00 | 0.00 | 93 | 1015.9 |
| 20260503070654 | 33 | 32 | 0.0 | 0.0 | 0.00 | 0.00 | 0.00 | 93 | 1016.0 |
| 20260503070554 | 33 | 32 | 0.0 | 0.0 | 0.00 | 0.00 | 0.00 | 93 | 1016.1 |
| 20260503070453 | 33 | 32 | 0.0 | 0.0 | 0.00 | 0.00 | 0.00 | 93 | 1016.0 |
| 20260503070354 | 33 | 32 | 0.0 | 0.0 | 0.00 | 0.00 | 0.00 | 93 | 1016.0 |
| 20260503070255 | 33 | 32 | 0.0 | 0.0 | 0.00 | 0.00 | 0.00 | 93 | 1016.0 |
| 20260503070154 | 33 | 32 | 0.0 | 0.0 | 0.00 | 0.00 | 0.00 | 93 | 1016.0 |
| 20260503060253 | 32 | 32 | 0.0 | 0.0 | 0.00 | 0.00 | 0.00 | 93 | 1016.2 |
| 20260503055054 | 32 | 32 | 0.0 | 0.0 | 0.00 | 0.00 | 0.00 | 92 | 1016.2 |
| 20260503054853 | 32 | 32 | 0.0 | 0.0 | 0.00 | 0.00 | 0.00 | 92 | 1016.2 |
| 20260503054754 | 32 | 32 | 0.0 | 0.0 | 0.00 | 0.00 | 0.00 | 92 | 1016.1 |
| 20260503054653 | 32 | 32 | 0.0 | 0.0 | 0.00 | 0.00 | 0.00 | 92 | 1016.2 |
| 20260503054554 | 32 | 32 | 0.0 | 0.0 | 0.00 | 0.00 | 0.00 | 92 | 1016.2 |
| 20260503054453 | 32 | 32 | 0.0 | 0.0 | 0.00 | 0.00 | 0.00 | 92 | 1016.2 |
| 20260503054253 | 32 | 32 | 0.0 | 0.0 | 0.00 | 0.00 | 0.00 | 92 | 1016.2 |
| 20260503054053 | 32 | 32 | 0.0 | 0.0 | 0.00 | 0.00 | 0.00 | 92 | 1016.2 |
| 20260503053952 | 32 | 32 | 0.0 | 0.0 | 0.00 | 0.00 | 0.00 | 92 | 1016.2 |
| 20260503053854 | 32 | 32 | 0.0 | 0.0 | 0.00 | 0.00 | 0.00 | 92 | 1016.1 |
| 20260503053753 | 32 | 32 | 0.0 | 0.0 | 0.00 | 0.00 | 0.00 | 92 | 1016.2 |
| 20260503053652 | 32 | 32 | 0.0 | 0.0 | 0.00 | 0.00 | 0.00 | 92 | 1016.2 |
| 20260503053353 | 32 | 32 | 0.0 | 0.0 | 0.00 | 0.00 | 0.00 | 92 | 1016.2 |
| 20260503053253 | 32 | 32 | 0.0 | 0.0 | 0.00 | 0.00 | 0.00 | 92 | 1016.2 |
| 20260503053153 | 32 | 32 | 0.0 | 0.0 | 0.00 | 0.00 | 0.00 | 92 | 1016.3 |
| 20260503053052 | 32 | 32 | 0.0 | 0.0 | 0.00 | 0.00 | 0.00 | 92 | 1016.2 |
| 20260503052953 | 32 | 32 | 0.0 | 0.0 | 0.00 | 0.00 | 0.00 | 92 | 1016.2 |
| 20260503052653 | 32 | 32 | 0.0 | 0.0 | 0.00 | 0.00 | 0.00 | 92 | 1016.2 |
| 20260503052553 | 32 | 32 | 0.0 | 0.0 | 0.00 | 0.00 | 0.00 | 92 | 1016.3 |
| 20260503052452 | 33 | 32 | 0.0 | 0.0 | 0.00 | 0.00 | 0.00 | 92 | 1016.2 |
| 20260503052353 | 33 | 32 | 0.0 | 0.0 | 0.00 | 0.00 | 0.00 | 92 | 1016.2 |
| 20260503052253 | 32 | 32 | 0.0 | 0.0 | 0.00 | 0.00 | 0.00 | 92 | 1016.3 |
| 20260503052152 | 33 | 32 | 0.0 | 0.0 | 0.00 | 0.00 | 0.00 | 92 | 1016.3 |
| 20260503051953 | 32 | 32 | 0.0 | 0.0 | 0.00 | 0.00 | 0.00 | 92 | 1016.2 |
| 20260503051853 | 32 | 32 | 0.0 | 0.0 | 0.00 | 0.00 | 0.00 | 92 | 1016.2 |
| 20260503051753 | 33 | 32 | 0.0 | 0.0 | 0.00 | 0.00 | 0.00 | 92 | 1016.3 |
| 20260503051652 | 32 | 32 | 0.0 | 0.0 | 0.00 | 0.00 | 0.00 | 91 | 1016.3 |
| 20260503051552 | 32 | 32 | 0.0 | 0.0 | 0.00 | 0.00 | 0.00 | 91 | 1016.3 |
| 20260503051452 | 32 | 32 | 0.0 | 0.0 | 0.00 | 0.00 | 0.00 | 91 | 1016.2 |
| 20260503051353 | 32 | 32 | 0.0 | 0.0 | 0.00 | 0.00 | 0.00 | 91 | 1016.3 |
| 20260503051253 | 32 | 32 | 0.0 | 0.0 | 0.00 | 0.00 | 0.00 | 91 | 1016.3 |
| 20260503051153 | 32 | 32 | 0.0 | 0.0 | 0.00 | 0.00 | 0.00 | 91 | 1016.2 |
| 20260503051054 | 32 | 32 | 0.0 | 0.0 | 0.00 | 0.00 | 0.00 | 91 | 1016.3 |
| 20260503050952 | 32 | 32 | 0.0 | 0.0 | 0.00 | 0.00 | 0.00 | 91 | 1016.3 |
| 20260503050852 | 32 | 32 | 0.0 | 0.0 | 0.00 | 0.00 | 0.00 | 91 | 1016.3 |
| 20260503050753 | 32 | 32 | 0.0 | 0.0 | 0.00 | 0.00 | 0.00 | 91 | 1016.3 |
| 20260503050653 | 32 | 32 | 0.0 | 0.0 | 0.00 | 0.00 | 0.00 | 91 | 1016.3 |
| 20260503050553 | 32 | 32 | 0.0 | 0.0 | 0.00 | 0.00 | 0.00 | 91 | 1016.3 |
| 20260503050453 | 32 | 32 | 0.0 | 0.0 | 0.00 | 0.00 | 0.00 | 91 | 1016.2 |
| 20260503050353 | 32 | 32 | 0.0 | 0.0 | 0.00 | 0.00 | 0.00 | 91 | 1016.2 |
| 20260503050253 | 32 | 32 | 0.0 | 0.0 | 0.00 | 0.00 | 0.00 | 91 | 1016.3 |
| 20260503050152 | 32 | 32 | 0.0 | 0.0 | 0.00 | 0.00 | 0.00 | 91 | 1016.3 |
| 20260503050053 | 32 | 32 | 0.0 | 0.0 | 0.00 | 0.00 | 0.00 | 91 | 1016.3 |
| 20260503045855 | 32 | 32 | 0.0 | 0.0 | 0.00 | 0.00 | 0.00 | 91 | 1016.3 |
| 20260503045756 | 33 | 32 | 0.0 | 0.0 | 0.00 | 0.00 | 0.00 | 90 | 1016.4 |
| 20260503045655 | 33 | 32 | 0.0 | 0.0 | 0.00 | 0.00 | 0.00 | 90 | 1016.3 |
| 20260503045555 | 33 | 32 | 0.0 | 0.0 | 0.00 | 0.00 | 0.00 | 91 | 1016.3 |
| 20260503045456 | 33 | 32 | 0.0 | 0.0 | 0.00 | 0.00 | 0.00 | 90 | 1016.3 |
| 20260503045355 | 33 | 32 | 0.0 | 0.0 | 0.00 | 0.00 | 0.00 | 90 | 1016.3 |
| 20260503045254 | 33 | 32 | 0.0 | 0.0 | 0.00 | 0.00 | 0.00 | 90 | 1016.3 |
| 20260503045155 | 33 | 32 | 0.0 | 0.0 | 0.00 | 0.00 | 0.00 | 90 | 1016.3 |
| 20260503045055 | 33 | 32 | 0.0 | 0.0 | 0.00 | 0.00 | 0.00 | 90 | 1016.3 |
| 20260503044955 | 33 | 32 | 0.0 | 0.0 | 0.00 | 0.00 | 0.00 | 90 | 1016.4 |
| 20260503044855 | 33 | 32 | 0.0 | 0.0 | 0.00 | 0.00 | 0.00 | 90 | 1016.3 |
| 20260503044755 | 33 | 32 | 0.0 | 0.0 | 0.00 | 0.00 | 0.00 | 90 | 1016.3 |
| 20260503044655 | 33 | 32 | 0.0 | 0.0 | 0.00 | 0.00 | 0.00 | 90 | 1016.3 |
| 20260503044555 | 33 | 32 | 0.0 | 0.0 | 0.00 | 0.00 | 0.00 | 90 | 1016.2 |
| 20260503044455 | 33 | 32 | 0.0 | 0.0 | 0.00 | 0.00 | 0.00 | 90 | 1016.3 |
| 20260503044255 | 33 | 32 | 0.0 | 0.0 | 0.00 | 0.00 | 0.00 | 90 | 1016.3 |
| 20260503044056 | 33 | 32 | 0.0 | 0.0 | 0.00 | 0.00 | 0.00 | 89 | 1016.3 |
| 20260503043955 | 33 | 32 | 0.0 | 0.0 | 0.00 | 0.00 | 0.00 | 89 | 1016.2 |
| 20260503043855 | 33 | 32 | 0.0 | 0.0 | 0.00 | 0.00 | 0.00 | 89 | 1016.3 |
| 20260503043755 | 33 | 32 | 0.0 | 0.0 | 0.00 | 0.00 | 0.00 | 89 | 1016.3 |
| 20260503043656 | 33 | 32 | 0.0 | 0.0 | 0.00 | 0.00 | 0.00 | 89 | 1016.3 |
| 20260503043555 | 34 | 32 | 0.0 | 0.0 | 0.00 | 0.00 | 0.00 | 89 | 1016.3 |
| 20260503043455 | 34 | 32 | 0.0 | 0.0 | 0.00 | 0.00 | 0.00 | 89 | 1016.3 |
| 20260503043255 | 34 | 32 | 0.0 | 0.0 | 0.00 | 0.00 | 0.00 | 88 | 1016.3 |
| 20260503043155 | 34 | 32 | 0.0 | 0.0 | 0.00 | 0.00 | 0.00 | 88 | 1016.3 |
| 20260503043056 | 34 | 32 | 0.0 | 0.0 | 0.00 | 0.00 | 0.00 | 88 | 1016.4 |
| 20260503042955 | 34 | 32 | 0.0 | 0.0 | 0.00 | 0.00 | 0.00 | 88 | 1016.3 |
| 20260503042855 | 34 | 32 | 0.0 | 0.0 | 0.00 | 0.00 | 0.00 | 88 | 1016.3 |
| 20260503042754 | 34 | 32 | 0.0 | 0.0 | 0.00 | 0.00 | 0.00 | 88 | 1016.3 |
| 20260503042555 | 34 | 32 | 0.0 | 0.0 | 0.00 | 0.00 | 0.00 | 88 | 1016.3 |
| 20260503042354 | 34 | 32 | 0.0 | 0.0 | 0.00 | 0.00 | 0.00 | 87 | 1016.3 |
| 20260503041955 | 34 | 32 | 0.0 | 0.0 | 0.00 | 0.00 | 0.00 | 88 | 1016.3 |
| 20260503041854 | 34 | 32 | 0.0 | 0.0 | 0.00 | 0.00 | 0.00 | 88 | 1016.3 |
| 20260503041755 | 34 | 32 | 0.0 | 0.0 | 0.00 | 0.00 | 0.00 | 88 | 1016.3 |
| 20260503041555 | 34 | 32 | 0.0 | 0.0 | 0.00 | 0.00 | 0.00 | 88 | 1016.4 |
| 20260503041455 | 34 | 32 | 0.0 | 0.0 | 0.00 | 0.00 | 0.00 | 88 | 1016.4 |
| 20260503041354 | 34 | 32 | 0.0 | 0.0 | 0.00 | 0.00 | 0.00 | 88 | 1016.4 |
| 20260503041254 | 34 | 32 | 0.0 | 0.0 | 0.00 | 0.00 | 0.00 | 88 | 1016.4 |
| 20260503041155 | 34 | 32 | 0.0 | 0.0 | 0.00 | 0.00 | 0.00 | 88 | 1016.4 |
| 20260503040955 | 34 | 32 | 0.0 | 0.0 | 0.00 | 0.00 | 0.00 | 88 | 1016.4 |
| 20260503040854 | 34 | 32 | 0.0 | 0.0 | 0.00 | 0.00 | 0.00 | 88 | 1016.4 |
| 20260503040755 | 34 | 32 | 0.0 | 0.0 | 0.00 | 0.00 | 0.00 | 88 | 1016.4 |
| 20260503040655 | 34 | 32 | 0.0 | 0.0 | 0.00 | 0.00 | 0.00 | 88 | 1016.4 |
| 20260503040555 | 34 | 32 | 0.0 | 0.0 | 0.00 | 0.00 | 0.00 | 88 | 1016.4 |
| 20260503040455 | 34 | 32 | 0.0 | 0.0 | 0.00 | 0.00 | 0.00 | 88 | 1016.4 |
| 20260503040355 | 35 | 32 | 0.0 | 0.0 | 0.00 | 0.00 | 0.00 | 87 | 1016.4 |
| 20260503040256 | 35 | 32 | 0.0 | 0.0 | 0.00 | 0.00 | 0.00 | 87 | 1016.4 |
| 20260503040155 | 35 | 32 | 0.0 | 0.0 | 0.00 | 0.00 | 0.00 | 87 | 1016.4 |
| 20260503040055 | 35 | 32 | 0.0 | 0.0 | 0.00 | 0.00 | 0.00 | 87 | 1016.4 |
| 20260503035955 | 35 | 32 | 0.0 | 0.0 | 0.00 | 0.00 | 0.00 | 87 | 1016.4 |
| 20260503035856 | 35 | 32 | 0.0 | 0.0 | 0.00 | 0.00 | 0.00 | 87 | 1016.4 |
| 20260503035757 | 35 | 32 | 0.0 | 0.0 | 0.00 | 0.00 | 0.00 | 87 | 1016.4 |
| 20260503035656 | 35 | 32 | 0.0 | 0.0 | 0.00 | 0.00 | 0.00 | 87 | 1016.4 |
| 20260503035556 | 35 | 32 | 0.0 | 0.0 | 0.00 | 0.00 | 0.00 | 87 | 1016.4 |
| 20260503035356 | 35 | 32 | 0.0 | 0.0 | 0.00 | 0.00 | 0.00 | 86 | 1016.3 |
| 20260503035256 | 35 | 32 | 0.0 | 0.0 | 0.00 | 0.00 | 0.00 | 86 | 1016.3 |
| 20260503035156 | 35 | 32 | 0.0 | 0.0 | 0.00 | 0.00 | 0.00 | 86 | 1016.3 |
| 20260503034956 | 35 | 32 | 0.0 | 0.0 | 0.00 | 0.00 | 0.00 | 85 | 1016.3 |
| 20260503034857 | 35 | 32 | 0.0 | 0.0 | 0.00 | 0.00 | 0.00 | 85 | 1016.3 |
| 20260503034656 | 35 | 32 | 0.0 | 0.0 | 0.00 | 0.00 | 0.00 | 85 | 1016.3 |
| 20260503034555 | 36 | 32 | 0.0 | 0.0 | 0.00 | 0.00 | 0.00 | 85 | 1016.4 |
| 20260503034455 | 36 | 32 | 0.0 | 0.0 | 0.00 | 0.00 | 0.00 | 85 | 1016.3 |
| 20260503034356 | 36 | 32 | 0.0 | 0.0 | 0.00 | 0.00 | 0.00 | 85 | 1016.3 |
| 20260503034256 | 36 | 32 | 0.0 | 0.0 | 0.00 | 0.00 | 0.00 | 85 | 1016.3 |
| 20260503034155 | 36 | 32 | 0.0 | 0.0 | 0.00 | 0.00 | 0.00 | 85 | 1016.4 |
| 20260503034056 | 36 | 32 | 0.0 | 0.0 | 0.00 | 0.00 | 0.00 | 85 | 1016.4 |
| 20260503033956 | 36 | 32 | 0.0 | 0.0 | 0.00 | 0.00 | 0.00 | 85 | 1016.2 |
| 20260503033856 | 36 | 32 | 0.0 | 0.0 | 0.00 | 0.00 | 0.00 | 85 | 1016.3 |
| 20260503033756 | 36 | 32 | 0.0 | 0.0 | 0.00 | 0.00 | 0.00 | 85 | 1016.4 |
| 20260503033656 | 36 | 32 | 0.0 | 0.0 | 0.00 | 0.00 | 0.00 | 85 | 1016.4 |
| 20260503033556 | 36 | 32 | 0.0 | 0.0 | 0.00 | 0.00 | 0.00 | 85 | 1016.4 |
| 20260503033358 | 36 | 32 | 0.0 | 0.0 | 0.00 | 0.00 | 0.00 | 85 | 1016.3 |
| 20260503033257 | 36 | 32 | 0.0 | 0.0 | 0.00 | 0.00 | 0.00 | 85 | 1016.3 |
| 20260503033158 | 36 | 32 | 0.0 | 0.0 | 0.00 | 0.00 | 0.00 | 84 | 1016.3 |
| 20260503033056 | 36 | 32 | 0.0 | 0.0 | 0.00 | 0.00 | 0.00 | 84 | 1016.3 |
| 20260503032955 | 36 | 32 | 0.0 | 0.0 | 0.00 | 0.00 | 0.00 | 85 | 1016.3 |
| 20260503032856 | 36 | 32 | 0.0 | 0.0 | 0.00 | 0.00 | 0.00 | 84 | 1016.3 |
| 20260503032757 | 36 | 32 | 0.0 | 0.0 | 0.00 | 0.00 | 0.00 | 84 | 1016.3 |
| 20260503032559 | 36 | 32 | 0.0 | 0.0 | 0.00 | 0.00 | 0.00 | 84 | 1016.2 |
| 20260503032456 | 36 | 32 | 0.0 | 0.0 | 0.00 | 0.00 | 0.00 | 84 | 1016.3 |
| 20260503032255 | 36 | 32 | 0.0 | 0.0 | 0.00 | 0.00 | 0.00 | 84 | 1016.3 |
| 20260503032156 | 36 | 32 | 0.0 | 0.0 | 0.00 | 0.00 | 0.00 | 84 | 1016.3 |
| 20260503031956 | 36 | 32 | 0.0 | 0.0 | 0.00 | 0.00 | 0.00 | 84 | 1016.3 |
| 20260503031756 | 37 | 32 | 0.0 | 0.0 | 0.00 | 0.00 | 0.00 | 84 | 1016.4 |
| 20260503031556 | 37 | 32 | 0.0 | 0.0 | 0.00 | 0.00 | 0.00 | 83 | 1016.3 |
| 20260503031356 | 37 | 32 | 0.0 | 0.0 | 0.00 | 0.00 | 0.00 | 83 | 1016.3 |
| 20260503031257 | 37 | 32 | 0.0 | 0.0 | 0.00 | 0.00 | 0.00 | 83 | 1016.4 |
| 20260503031156 | 37 | 32 | 0.0 | 0.0 | 0.00 | 0.00 | 0.00 | 83 | 1016.3 |
| 20260503031055 | 37 | 32 | 0.0 | 0.0 | 0.00 | 0.00 | 0.00 | 83 | 1016.4 |
| 20260503030955 | 37 | 32 | 0.0 | 0.0 | 0.00 | 0.00 | 0.00 | 83 | 1016.4 |
| 20260503030856 | 37 | 32 | 0.0 | 0.0 | 0.00 | 0.00 | 0.00 | 83 | 1016.3 |
| 20260503030756 | 37 | 32 | 0.0 | 0.0 | 0.00 | 0.00 | 0.00 | 83 | 1016.4 |
| 20260503030456 | 37 | 32 | 0.0 | 0.0 | 0.00 | 0.00 | 0.00 | 83 | 1016.3 |
| 20260503030355 | 37 | 32 | 0.0 | 0.0 | 0.00 | 0.00 | 0.00 | 82 | 1016.4 |
| 20260503030255 | 37 | 32 | 0.0 | 0.0 | 0.00 | 0.00 | 0.00 | 82 | 1016.4 |
| 20260503030156 | 37 | 32 | 0.0 | 0.0 | 0.00 | 0.00 | 0.00 | 83 | 1016.3 |
| 20260503025855 | 37 | 32 | 0.0 | 0.0 | 0.00 | 0.00 | 0.00 | 83 | 1016.5 |
| 20260503025755 | 38 | 32 | 0.0 | 0.0 | 0.00 | 0.00 | 0.00 | 83 | 1016.4 |
| 20260503025654 | 38 | 32 | 0.0 | 0.0 | 0.00 | 0.00 | 0.00 | 83 | 1016.4 |
| 20260503025454 | 38 | 32 | 0.0 | 0.0 | 0.00 | 0.00 | 0.00 | 83 | 1016.4 |
| 20260503025354 | 38 | 32 | 0.0 | 0.0 | 0.00 | 0.00 | 0.00 | 83 | 1016.3 |
| 20260503025255 | 38 | 32 | 0.0 | 0.0 | 0.00 | 0.00 | 0.00 | 83 | 1016.4 |
| 20260503025155 | 38 | 32 | 0.0 | 0.0 | 0.00 | 0.00 | 0.00 | 83 | 1016.4 |
| 20260503024955 | 38 | 32 | 0.0 | 0.0 | 0.00 | 0.00 | 0.00 | 83 | 1016.4 |
| 20260503024855 | 38 | 32 | 0.0 | 0.0 | 0.00 | 0.00 | 0.00 | 83 | 1016.4 |
| 20260503024756 | 38 | 32 | 0.0 | 0.0 | 0.00 | 0.00 | 0.00 | 83 | 1016.3 |
| 20260503024656 | 38 | 32 | 0.0 | 0.0 | 0.00 | 0.00 | 0.00 | 83 | 1016.4 |
| 20260503024555 | 38 | 32 | 0.0 | 0.0 | 0.00 | 0.00 | 0.00 | 82 | 1016.4 |
| 20260503024455 | 38 | 32 | 0.0 | 0.0 | 0.00 | 0.00 | 0.00 | 82 | 1016.4 |
| 20260503024355 | 38 | 32 | 0.0 | 0.0 | 0.00 | 0.00 | 0.00 | 82 | 1016.3 |
| 20260503024255 | 38 | 32 | 0.0 | 0.0 | 0.00 | 0.00 | 0.00 | 82 | 1016.4 |
| 20260503024157 | 38 | 32 | 0.0 | 0.0 | 0.00 | 0.00 | 0.00 | 82 | 1016.4 |
| 20260503023955 | 38 | 32 | 0.0 | 0.0 | 0.00 | 0.00 | 0.00 | 82 | 1016.4 |
| 20260503023855 | 38 | 32 | 0.0 | 0.0 | 0.00 | 0.00 | 0.00 | 82 | 1016.4 |
| 20260503023656 | 38 | 32 | 0.0 | 0.0 | 0.00 | 0.00 | 0.00 | 81 | 1016.4 |
| 20260503023556 | 38 | 32 | 0.0 | 0.0 | 0.00 | 0.00 | 0.00 | 81 | 1016.5 |
| 20260503023455 | 38 | 32 | 0.0 | 0.0 | 0.00 | 0.00 | 0.00 | 81 | 1016.4 |
| 20260503023355 | 38 | 32 | 0.0 | 0.0 | 0.00 | 0.00 | 0.00 | 81 | 1016.5 |
| 20260503023155 | 38 | 32 | 0.0 | 0.0 | 0.00 | 0.00 | 0.00 | 80 | 1016.5 |
| 20260503023055 | 38 | 32 | 0.0 | 0.0 | 0.00 | 0.00 | 0.00 | 80 | 1016.5 |
| 20260503022955 | 38 | 32 | 0.0 | 0.0 | 0.00 | 0.00 | 0.00 | 80 | 1016.5 |
| 20260503022855 | 38 | 32 | 0.0 | 0.0 | 0.00 | 0.00 | 0.00 | 80 | 1016.5 |
| 20260503022755 | 38 | 32 | 0.0 | 0.0 | 0.00 | 0.00 | 0.00 | 80 | 1016.5 |
| 20260503022655 | 38 | 32 | 0.0 | 0.0 | 0.00 | 0.00 | 0.00 | 80 | 1016.5 |
| 20260503022556 | 38 | 32 | 0.0 | 0.0 | 0.00 | 0.00 | 0.00 | 80 | 1016.5 |
| 20260503022454 | 38 | 32 | 0.0 | 0.0 | 0.00 | 0.00 | 0.00 | 80 | 1016.5 |
| 20260503022355 | 38 | 32 | 0.0 | 0.0 | 0.00 | 0.00 | 0.00 | 79 | 1016.5 |
| 20260503022255 | 38 | 32 | 0.0 | 0.0 | 0.00 | 0.00 | 0.00 | 80 | 1016.5 |
| 20260503022156 | 38 | 32 | 0.0 | 0.0 | 0.00 | 0.00 | 0.00 | 80 | 1016.5 |
| 20260503022054 | 38 | 32 | 0.0 | 0.0 | 0.00 | 0.00 | 0.00 | 81 | 1016.5 |
| 20260503021955 | 38 | 32 | 0.0 | 0.0 | 0.00 | 0.00 | 0.00 | 81 | 1016.5 |
| 20260503021855 | 38 | 32 | 0.0 | 0.0 | 0.00 | 0.00 | 0.00 | 81 | 1016.5 |
| 20260503021756 | 38 | 32 | 0.0 | 0.0 | 0.00 | 0.00 | 0.00 | 82 | 1016.5 |
| 20260503021654 | 38 | 32 | 0.0 | 0.0 | 0.00 | 0.00 | 0.00 | 81 | 1016.5 |
| 20260503021555 | 38 | 32 | 0.0 | 0.0 | 0.00 | 0.00 | 0.00 | 81 | 1016.5 |
| 20260503021454 | 38 | 32 | 0.0 | 0.0 | 0.00 | 0.00 | 0.00 | 81 | 1016.6 |
| 20260503021355 | 38 | 32 | 0.0 | 0.0 | 0.00 | 0.00 | 0.00 | 81 | 1016.5 |
| 20260503021256 | 38 | 32 | 0.0 | 0.0 | 0.00 | 0.00 | 0.00 | 81 | 1016.5 |
| 20260503021155 | 38 | 32 | 0.0 | 0.0 | 0.00 | 0.00 | 0.00 | 81 | 1016.5 |
| 20260503021055 | 39 | 32 | 0.0 | 0.0 | 0.00 | 0.00 | 0.00 | 81 | 1016.5 |
| 20260503020955 | 39 | 32 | 0.0 | 0.0 | 0.00 | 0.00 | 0.00 | 81 | 1016.5 |
| 20260503020656 | 39 | 32 | 0.0 | 0.0 | 0.00 | 0.00 | 0.00 | 81 | 1016.5 |
| 20260503020554 | 39 | 32 | 0.0 | 0.0 | 0.00 | 0.00 | 0.00 | 81 | 1016.4 |
| 20260503020455 | 39 | 32 | 0.0 | 0.0 | 0.00 | 0.00 | 0.00 | 81 | 1016.4 |
| 20260503020255 | 39 | 32 | 0.0 | 0.0 | 0.00 | 0.00 | 0.00 | 80 | 1016.4 |
| 20260503020155 | 39 | 32 | 0.0 | 0.0 | 0.00 | 0.00 | 0.00 | 80 | 1016.4 |
| 20260503020055 | 39 | 32 | 0.0 | 0.0 | 0.00 | 0.00 | 0.00 | 79 | 1016.4 |
| 20260503015958 | 39 | 32 | 0.0 | 0.0 | 0.00 | 0.00 | 0.00 | 79 | 1016.4 |
| 20260503015855 | 39 | 32 | 0.0 | 0.0 | 0.00 | 0.00 | 0.00 | 79 | 1016.4 |
| 20260503015656 | 39 | 32 | 0.0 | 0.0 | 0.00 | 0.00 | 0.00 | 80 | 1016.5 |
| 20260503015456 | 39 | 32 | 0.0 | 0.0 | 0.00 | 0.00 | 0.00 | 79 | 1016.4 |
| 20260503015355 | 39 | 32 | 0.0 | 0.0 | 0.00 | 0.00 | 0.00 | 79 | 1016.4 |
| 20260503015257 | 39 | 32 | 0.0 | 0.0 | 0.00 | 0.00 | 0.00 | 80 | 1016.4 |
| 20260503015155 | 39 | 32 | 0.0 | 0.0 | 0.00 | 0.00 | 0.00 | 80 | 1016.4 |
| 20260503014956 | 39 | 32 | 0.0 | 0.0 | 0.00 | 0.00 | 0.00 | 80 | 1016.5 |
| 20260503014856 | 39 | 32 | 0.0 | 0.0 | 0.00 | 0.00 | 0.00 | 80 | 1016.5 |
| 20260503014756 | 39 | 32 | 0.0 | 0.0 | 0.00 | 0.00 | 0.00 | 80 | 1016.5 |
| 20260503014655 | 39 | 32 | 0.0 | 0.0 | 0.00 | 0.00 | 0.00 | 79 | 1016.6 |
| 20260503014556 | 39 | 32 | 0.0 | 0.0 | 0.00 | 0.00 | 0.00 | 79 | 1016.5 |
| 20260503014456 | 39 | 32 | 0.0 | 0.0 | 0.00 | 0.00 | 0.00 | 79 | 1016.4 |
| 20260503014356 | 39 | 32 | 0.0 | 0.0 | 0.00 | 0.00 | 0.00 | 79 | 1016.5 |
| 20260503014256 | 39 | 32 | 0.0 | 0.0 | 0.00 | 0.00 | 0.00 | 79 | 1016.4 |
| 20260503014156 | 39 | 32 | 0.0 | 0.0 | 0.00 | 0.00 | 0.00 | 79 | 1016.4 |
| 20260503014056 | 39 | 32 | 0.0 | 0.0 | 0.00 | 0.00 | 0.00 | 78 | 1016.4 |
| 20260503013957 | 39 | 32 | 0.0 | 0.0 | 0.00 | 0.00 | 0.00 | 78 | 1016.4 |
| 20260503013756 | 39 | 32 | 0.0 | 0.0 | 0.00 | 0.00 | 0.00 | 78 | 1016.4 |
| 20260503013655 | 39 | 32 | 0.0 | 0.0 | 0.00 | 0.00 | 0.00 | 78 | 1016.4 |
| 20260503013555 | 40 | 32 | 0.0 | 0.0 | 0.00 | 0.00 | 0.00 | 78 | 1016.3 |
| 20260503013357 | 40 | 32 | 0.0 | 0.0 | 0.00 | 0.00 | 0.00 | 77 | 1016.3 |
| 20260503013156 | 40 | 32 | 0.0 | 0.0 | 0.00 | 0.00 | 0.00 | 77 | 1016.3 |
| 20260503012955 | 40 | 32 | 0.0 | 0.0 | 0.00 | 0.00 | 0.00 | 77 | 1016.3 |
| 20260503012856 | 40 | 32 | 0.0 | 0.0 | 0.00 | 0.00 | 0.00 | 77 | 1016.3 |
| 20260503012656 | 40 | 32 | 0.0 | 0.0 | 0.00 | 0.00 | 0.00 | 76 | 1016.4 |
| 20260503012556 | 40 | 32 | 0.0 | 0.0 | 0.00 | 0.00 | 0.00 | 76 | 1016.3 |
| 20260503012455 | 40 | 32 | 0.0 | 0.0 | 0.00 | 0.00 | 0.00 | 76 | 1016.3 |
| 20260503012357 | 40 | 32 | 0.0 | 0.0 | 0.00 | 0.00 | 0.00 | 76 | 1016.4 |
| 20260503012156 | 40 | 32 | 0.0 | 0.0 | 0.00 | 0.00 | 0.00 | 76 | 1016.4 |
| 20260503012057 | 40 | 32 | 0.0 | 0.0 | 0.00 | 0.00 | 0.00 | 77 | 1016.3 |
| 20260503011956 | 40 | 32 | 0.0 | 0.0 | 0.00 | 0.00 | 0.00 | 76 | 1016.4 |
| 20260503011856 | 40 | 32 | 0.0 | 0.9 | 0.00 | 0.00 | 0.00 | 77 | 1016.3 |
| 20260503011756 | 40 | 32 | 0.0 | 0.9 | 0.00 | 0.00 | 0.00 | 77 | 1016.3 |
| 20260503011656 | 40 | 32 | 0.0 | 0.9 | 0.00 | 0.00 | 0.00 | 76 | 1016.3 |
| 20260503011557 | 40 | 32 | 0.0 | 0.9 | 0.00 | 0.00 | 0.00 | 78 | 1016.3 |
| 20260503011456 | 40 | 32 | 0.0 | 0.9 | 0.00 | 0.00 | 0.00 | 78 | 1016.4 |
| 20260503011355 | 40 | 32 | 0.0 | 0.9 | 0.00 | 0.00 | 0.00 | 77 | 1016.3 |
| 20260503011256 | 40 | 32 | 0.0 | 0.9 | 0.00 | 0.00 | 0.00 | 77 | 1016.3 |
| 20260503011056 | 40 | 32 | 0.0 | 0.9 | 0.00 | 0.00 | 0.00 | 79 | 1016.3 |
| 20260503010956 | 40 | 32 | 0.0 | 0.0 | 0.00 | 0.00 | 0.00 | 79 | 1016.3 |
| 20260503010856 | 40 | 32 | 0.0 | 0.0 | 0.00 | 0.00 | 0.00 | 79 | 1016.4 |
| 20260503010655 | 40 | 32 | 0.0 | 0.0 | 0.00 | 0.00 | 0.00 | 79 | 1016.2 |
| 20260503010456 | 40 | 32 | 0.0 | 0.0 | 0.00 | 0.00 | 0.00 | 79 | 1016.2 |
| 20260503010357 | 40 | 32 | 0.0 | 0.0 | 0.00 | 0.00 | 0.00 | 79 | 1016.3 |
| 20260503010056 | 40 | 32 | 0.0 | 0.0 | 0.00 | 0.00 | 0.00 | 79 | 1016.3 |
| 20260503005958 | 40 | 32 | 0.0 | 0.0 | 0.00 | 0.00 | 0.00 | 79 | 1016.3 |
| 20260503005857 | 40 | 32 | 0.0 | 0.0 | 0.00 | 0.00 | 0.00 | 79 | 1016.2 |
| 20260503005757 | 40 | 32 | 0.0 | 0.0 | 0.00 | 0.00 | 0.00 | 79 | 1016.2 |
| 20260503005656 | 40 | 32 | 0.0 | 0.0 | 0.00 | 0.00 | 0.00 | 79 | 1016.2 |
| 20260503005555 | 40 | 32 | 0.0 | 0.0 | 0.00 | 0.00 | 0.00 | 79 | 1016.2 |
| 20260503005457 | 40 | 32 | 0.0 | 0.0 | 0.00 | 0.00 | 0.00 | 78 | 1016.3 |
| 20260503005257 | 40 | 32 | 0.0 | 0.0 | 0.00 | 0.00 | 0.00 | 78 | 1016.2 |
| 20260503005156 | 40 | 32 | 0.0 | 0.0 | 0.00 | 0.00 | 0.00 | 78 | 1016.2 |
| 20260503005055 | 40 | 32 | 0.0 | 0.0 | 0.00 | 0.00 | 0.00 | 78 | 1016.2 |
| 20260503004956 | 40 | 32 | 0.0 | 0.0 | 0.00 | 0.00 | 0.00 | 78 | 1016.1 |
| 20260503004855 | 40 | 32 | 0.0 | 0.0 | 0.00 | 0.00 | 0.00 | 78 | 1016.1 |
| 20260503004655 | 40 | 32 | 0.0 | 0.0 | 0.00 | 0.00 | 0.00 | 78 | 1016.0 |
| 20260503004557 | 40 | 32 | 0.0 | 0.0 | 0.00 | 0.00 | 0.00 | 78 | 1016.2 |
| 20260503004456 | 40 | 32 | 0.0 | 0.0 | 0.00 | 0.00 | 0.00 | 77 | 1016.1 |
| 20260503004356 | 40 | 32 | 0.0 | 0.0 | 0.00 | 0.00 | 0.00 | 77 | 1016.0 |
| 20260503004257 | 40 | 32 | 0.0 | 0.0 | 0.00 | 0.00 | 0.00 | 77 | 1016.0 |
| 20260503004155 | 40 | 32 | 0.0 | 0.0 | 0.00 | 0.00 | 0.00 | 77 | 1016.1 |
| 20260503004055 | 41 | 32 | 0.0 | 0.0 | 0.00 | 0.00 | 0.00 | 77 | 1016.0 |
| 20260503003956 | 41 | 32 | 0.0 | 0.0 | 0.00 | 0.00 | 0.00 | 76 | 1016.0 |
| 20260503003855 | 41 | 32 | 0.0 | 0.0 | 0.00 | 0.00 | 0.00 | 76 | 1016.1 |
| 20260503003757 | 41 | 32 | 0.0 | 0.0 | 0.00 | 0.00 | 0.00 | 76 | 1016.0 |
| 20260503003656 | 41 | 32 | 0.0 | 0.0 | 0.00 | 0.00 | 0.00 | 76 | 1015.9 |
| 20260503003555 | 41 | 32 | 0.0 | 0.0 | 0.00 | 0.00 | 0.00 | 76 | 1016.0 |
| 20260503003356 | 41 | 32 | 0.0 | 0.0 | 0.00 | 0.00 | 0.00 | 75 | 1015.9 |
| 20260503003256 | 41 | 32 | 0.0 | 0.0 | 0.00 | 0.00 | 0.00 | 75 | 1015.9 |
| 20260503003056 | 41 | 32 | 0.0 | 0.0 | 0.00 | 0.00 | 0.00 | 73 | 1016.0 |
| 20260503002955 | 41 | 32 | 0.0 | 0.0 | 0.00 | 0.00 | 0.00 | 73 | 1016.0 |
| 20260503002857 | 41 | 32 | 0.0 | 0.0 | 0.00 | 0.00 | 0.00 | 73 | 1015.9 |
| 20260503002756 | 41 | 32 | 0.0 | 0.0 | 0.00 | 0.00 | 0.00 | 73 | 1015.9 |
| 20260503002656 | 41 | 32 | 0.0 | 0.0 | 0.00 | 0.00 | 0.00 | 73 | 1015.9 |
| 20260503002555 | 41 | 32 | 0.0 | 0.0 | 0.00 | 0.00 | 0.00 | 73 | 1015.9 |
| 20260503002456 | 41 | 32 | 0.0 | 0.0 | 0.00 | 0.00 | 0.00 | 72 | 1015.9 |
| 20260503002357 | 41 | 32 | 0.0 | 0.0 | 0.00 | 0.00 | 0.00 | 72 | 1015.9 |
| 20260503002156 | 41 | 32 | 0.0 | 0.0 | 0.00 | 0.00 | 0.00 | 72 | 1016.0 |
| 20260503002056 | 41 | 32 | 0.0 | 0.0 | 0.00 | 0.00 | 0.00 | 72 | 1016.0 |
| 20260503001856 | 41 | 32 | 0.0 | 0.0 | 0.00 | 0.00 | 0.00 | 72 | 1015.9 |
| 20260503001757 | 41 | 32 | 0.0 | 0.0 | 0.00 | 0.00 | 0.00 | 72 | 1016.0 |
| 20260503001656 | 41 | 32 | 0.0 | 0.0 | 0.00 | 0.00 | 0.00 | 71 | 1016.0 |
| 20260503001556 | 41 | 32 | 0.0 | 0.0 | 0.00 | 0.00 | 0.00 | 71 | 1016.0 |
| 20260503001455 | 41 | 32 | 0.0 | 0.0 | 0.00 | 0.00 | 0.00 | 71 | 1016.0 |
| 20260503001255 | 41 | 32 | 0.0 | 0.9 | 0.00 | 0.00 | 0.00 | 71 | 1016.0 |
| 20260503001156 | 42 | 32 | 0.0 | 0.9 | 0.00 | 0.00 | 0.00 | 71 | 1016.0 |
| 20260503001056 | 42 | 32 | 0.0 | 0.9 | 0.00 | 0.00 | 0.00 | 70 | 1016.0 |
| 20260503000856 | 42 | 32 | 0.0 | 0.9 | 0.00 | 0.00 | 0.00 | 70 | 1016.0 |
| 20260503000755 | 42 | 32 | 0.0 | 0.9 | 0.00 | 0.00 | 0.00 | 70 | 1016.0 |
| 20260503000655 | 42 | 32 | 0.0 | 0.9 | 0.00 | 0.00 | 0.00 | 70 | 1016.0 |
| 20260503000555 | 42 | 32 | 0.0 | 0.9 | 0.00 | 0.00 | 0.00 | 70 | 1016.0 |
| 20260503000455 | 42 | 32 | 0.0 | 1.7 | 0.00 | 0.00 | 0.00 | 70 | 1016.0 |
| 20260503000355 | 42 | 32 | 0.9 | 1.7 | 0.00 | 0.00 | 0.00 | 69 | 1016.0 |
| 20260503000255 | 42 | 32 | 0.9 | 2.6 | 0.00 | 0.00 | 0.00 | 69 | 1016.0 |
| 20260503000157 | 42 | 32 | 0.0 | 2.6 | 0.00 | 0.00 | 0.00 | 70 | 1015.9 |
| 20260502235958 | 42 | 32 | 0.0 | 2.6 | 0.00 | 0.00 | 0.00 | 68 | 1015.8 |
| 20260502235856 | 42 | 32 | 0.0 | 2.6 | 0.00 | 0.02 | 0.00 | 68 | 1015.8 |
| 20260502235757 | 42 | 32 | 0.9 | 2.6 | 0.00 | 0.02 | 0.00 | 68 | 1015.8 |
| 20260502235656 | 42 | 32 | 0.0 | 2.6 | 0.00 | 0.02 | 0.00 | 68 | 1015.8 |
| 20260502235556 | 42 | 36 | 0.9 | 2.6 | 0.00 | 0.02 | 0.00 | 68 | 1015.7 |
| 20260502235456 | 42 | 36 | 0.9 | 2.6 | 0.00 | 0.02 | 0.00 | 68 | 1015.7 |
| 20260502235355 | 42 | 5 | 1.7 | 2.6 | 0.00 | 0.02 | 0.00 | 68 | 1015.7 |
| 20260502235256 | 42 | 35 | 0.9 | 1.7 | 0.00 | 0.02 | 0.00 | 69 | 1015.6 |
| 20260502235156 | 42 | 35 | 0.0 | 1.7 | 0.00 | 0.02 | 0.00 | 68 | 1015.7 |
| 20260502234957 | 42 | 35 | 0.0 | 2.6 | 0.00 | 0.02 | 0.00 | 68 | 1015.7 |
| 20260502234857 | 42 | 35 | 0.0 | 2.6 | 0.00 | 0.02 | 0.00 | 67 | 1015.8 |
| 20260502234756 | 42 | 35 | 0.9 | 2.6 | 0.00 | 0.02 | 0.00 | 67 | 1015.8 |
| 20260502234656 | 42 | 35 | 0.9 | 2.6 | 0.00 | 0.02 | 0.00 | 67 | 1015.6 |
| 20260502234556 | 42 | 34 | 1.7 | 2.6 | 0.00 | 0.02 | 0.00 | 67 | 1015.7 |
| 20260502234357 | 42 | 13 | 1.7 | 2.6 | 0.00 | 0.02 | 0.00 | 66 | 1015.7 |
| 20260502234256 | 42 | 21 | 1.7 | 2.6 | 0.00 | 0.02 | 0.00 | 66 | 1015.7 |
| 20260502234156 | 42 | 235 | 0.9 | 1.7 | 0.00 | 0.02 | 0.00 | 67 | 1015.7 |
| 20260502234055 | 42 | 221 | 0.0 | 1.7 | 0.00 | 0.02 | 0.00 | 68 | 1015.7 |
| 20260502233856 | 42 | 236 | 0.0 | 1.7 | 0.00 | 0.02 | 0.00 | 67 | 1015.6 |
| 20260502233759 | 42 | 236 | 0.9 | 1.7 | 0.00 | 0.02 | 0.00 | 66 | 1015.7 |
| 20260502233656 | 42 | 236 | 1.7 | 3.5 | 0.00 | 0.02 | 0.00 | 67 | 1015.6 |
| 20260502233556 | 42 | 128 | 0.0 | 3.5 | 0.00 | 0.02 | 0.00 | 68 | 1015.6 |
| 20260502233456 | 42 | 345 | 0.0 | 3.5 | 0.00 | 0.02 | 0.00 | 67 | 1015.7 |
| 20260502233356 | 42 | 345 | 0.0 | 3.5 | 0.00 | 0.02 | 0.00 | 68 | 1015.6 |
| 20260502233257 | 42 | 345 | 0.9 | 3.5 | 0.00 | 0.02 | 0.00 | 68 | 1015.7 |
| 20260502233156 | 42 | 345 | 0.0 | 3.5 | 0.00 | 0.02 | 0.00 | 68 | 1015.7 |
| 20260502233057 | 43 | 347 | 0.0 | 3.5 | 0.00 | 0.02 | 0.00 | 67 | 1015.7 |
| 20260502232856 | 43 | 347 | 0.9 | 3.5 | 0.00 | 0.02 | 0.00 | 68 | 1015.7 |
| 20260502232755 | 43 | 28 | 3.5 | 3.5 | 0.00 | 0.02 | 0.00 | 67 | 1015.7 |
| 20260502232656 | 43 | 61 | 0.0 | 2.6 | 0.00 | 0.02 | 0.00 | 67 | 1015.7 |
| 20260502232556 | 43 | 62 | 0.9 | 5.2 | 0.00 | 0.02 | 0.00 | 66 | 1015.6 |
| 20260502232456 | 43 | 75 | 0.0 | 5.2 | 0.00 | 0.02 | 0.00 | 67 | 1015.7 |
| 20260502232355 | 43 | 67 | 0.0 | 5.2 | 0.00 | 0.02 | 0.00 | 68 | 1015.6 |
| 20260502232257 | 43 | 67 | 0.0 | 5.2 | 0.00 | 0.02 | 0.00 | 68 | 1015.6 |
| 20260502232156 | 43 | 67 | 0.9 | 5.2 | 0.00 | 0.02 | 0.00 | 66 | 1015.7 |
| 20260502232056 | 43 | 5 | 0.0 | 5.2 | 0.00 | 0.02 | 0.00 | 67 | 1015.6 |
| 20260502231956 | 43 | 9 | 0.0 | 5.2 | 0.00 | 0.02 | 0.00 | 67 | 1015.6 |
| 20260502231855 | 43 | 32 | 1.7 | 5.2 | 0.00 | 0.02 | 0.00 | 66 | 1015.6 |
| 20260502231755 | 43 | 355 | 0.9 | 5.2 | 0.00 | 0.02 | 0.00 | 67 | 1015.6 |
| 20260502231656 | 43 | 239 | 1.7 | 4.3 | 0.00 | 0.02 | 0.00 | 69 | 1015.6 |
| 20260502231456 | 43 | 68 | 0.0 | 4.3 | 0.00 | 0.02 | 0.00 | 67 | 1015.5 |
| 20260502231356 | 43 | 68 | 0.9 | 4.3 | 0.00 | 0.02 | 0.00 | 67 | 1015.5 |
| 20260502231256 | 43 | 56 | 1.7 | 4.3 | 0.00 | 0.02 | 0.00 | 69 | 1015.6 |
| 20260502231156 | 43 | 325 | 1.7 | 4.3 | 0.00 | 0.02 | 0.00 | 68 | 1015.5 |
| 20260502230956 | 43 | 153 | 0.9 | 2.6 | 0.00 | 0.02 | 0.00 | 68 | 1015.5 |
| 20260502230656 | 43 | 348 | 0.9 | 2.6 | 0.00 | 0.02 | 0.00 | 67 | 1015.5 |
| 20260502230557 | 43 | 343 | 0.0 | 3.5 | 0.00 | 0.02 | 0.00 | 67 | 1015.5 |
| 20260502230456 | 43 | 337 | 0.9 | 3.5 | 0.00 | 0.02 | 0.00 | 68 | 1015.6 |
| 20260502230355 | 43 | 268 | 0.9 | 3.5 | 0.00 | 0.02 | 0.00 | 68 | 1015.6 |
| 20260502230256 | 43 | 269 | 0.9 | 3.5 | 0.00 | 0.02 | 0.00 | 67 | 1015.6 |
| 20260502230157 | 43 | 269 | 0.0 | 3.5 | 0.00 | 0.02 | 0.00 | 68 | 1015.5 |
| 20260502230057 | 43 | 277 | 0.0 | 3.5 | 0.00 | 0.02 | 0.00 | 67 | 1015.5 |
| 20260502225954 | 43 | 319 | 0.0 | 3.5 | 0.00 | 0.06 | 0.00 | 67 | 1015.6 |
| 20260502225856 | 43 | 259 | 0.9 | 3.5 | 0.00 | 0.06 | 0.00 | 66 | 1015.6 |
| 20260502225755 | 43 | 281 | 0.0 | 3.5 | 0.00 | 0.06 | 0.00 | 68 | 1015.6 |
| 20260502225654 | 43 | 232 | 0.9 | 2.6 | 0.00 | 0.06 | 0.00 | 68 | 1015.5 |
| 20260502225555 | 43 | 232 | 0.0 | 3.5 | 0.00 | 0.06 | 0.00 | 68 | 1015.6 |
| 20260502225455 | 43 | 253 | 0.9 | 3.5 | 0.00 | 0.06 | 0.00 | 69 | 1015.6 |
| 20260502225354 | 43 | 327 | 0.0 | 3.5 | 0.00 | 0.06 | 0.00 | 69 | 1015.6 |
| 20260502225255 | 43 | 327 | 0.0 | 3.5 | 0.00 | 0.06 | 0.00 | 70 | 1015.6 |
| 20260502225154 | 43 | 327 | 0.0 | 3.5 | 0.00 | 0.06 | 0.00 | 68 | 1015.6 |
| 20260502225055 | 43 | 327 | 1.7 | 3.5 | 0.00 | 0.06 | 0.00 | 69 | 1015.7 |
| 20260502224954 | 43 | 24 | 0.0 | 3.5 | 0.00 | 0.06 | 0.00 | 70 | 1015.8 |
| 20260502224854 | 43 | 24 | 1.7 | 3.5 | 0.00 | 0.06 | 0.00 | 70 | 1015.7 |
| 20260502224755 | 43 | 340 | 1.7 | 3.5 | 0.00 | 0.06 | 0.00 | 69 | 1015.7 |
| 20260502224654 | 43 | 237 | 0.0 | 2.6 | 0.00 | 0.06 | 0.00 | 70 | 1015.7 |
| 20260502224555 | 43 | 237 | 0.9 | 3.5 | 0.00 | 0.06 | 0.00 | 70 | 1015.7 |
| 20260502224455 | 43 | 9 | 0.9 | 3.5 | 0.00 | 0.06 | 0.00 | 70 | 1015.6 |
| 20260502224255 | 43 | 9 | 0.0 | 3.5 | 0.00 | 0.06 | 0.00 | 72 | 1015.6 |
| 20260502224155 | 43 | 35 | 0.0 | 3.5 | 0.00 | 0.06 | 0.00 | 71 | 1015.6 |
| 20260502224055 | 43 | 35 | 0.0 | 3.5 | 0.00 | 0.06 | 0.00 | 70 | 1015.6 |
| 20260502223955 | 43 | 35 | 0.9 | 3.5 | 0.00 | 0.06 | 0.00 | 71 | 1015.5 |
| 20260502223855 | 43 | 34 | 0.9 | 4.3 | 0.00 | 0.06 | 0.00 | 71 | 1015.5 |
| 20260502223355 | 43 | 327 | 1.7 | 4.3 | 0.00 | 0.06 | 0.00 | 70 | 1015.5 |
| 20260502223155 | 43 | 274 | 1.7 | 4.3 | 0.00 | 0.06 | 0.00 | 70 | 1015.5 |
| 20260502223055 | 43 | 277 | 0.0 | 4.3 | 0.00 | 0.06 | 0.00 | 70 | 1015.5 |
| 20260502222954 | 43 | 231 | 1.7 | 3.5 | 0.00 | 0.06 | 0.00 | 71 | 1015.4 |
| 20260502222855 | 43 | 340 | 0.9 | 3.5 | 0.00 | 0.06 | 0.00 | 72 | 1015.5 |
| 20260502222754 | 43 | 319 | 0.9 | 3.5 | 0.00 | 0.06 | 0.00 | 71 | 1015.4 |
| 20260502222655 | 43 | 32 | 0.0 | 3.5 | 0.00 | 0.06 | 0.00 | 71 | 1015.5 |
| 20260502222354 | 43 | 111 | 1.7 | 3.5 | 0.00 | 0.06 | 0.00 | 74 | 1015.5 |
| 20260502222155 | 43 | 265 | 1.7 | 1.7 | 0.00 | 0.06 | 0.00 | 72 | 1015.5 |
| 20260502222055 | 43 | 207 | 0.9 | 1.7 | 0.00 | 0.06 | 0.00 | 71 | 1015.4 |
| 20260502221954 | 43 | 207 | 0.0 | 1.7 | 0.00 | 0.06 | 0.00 | 72 | 1015.5 |
| 20260502221856 | 43 | 207 | 0.0 | 1.7 | 0.00 | 0.06 | 0.00 | 72 | 1015.4 |
| 20260502221754 | 43 | 207 | 0.0 | 1.7 | 0.00 | 0.06 | 0.00 | 72 | 1015.5 |
| 20260502221655 | 43 | 207 | 0.0 | 1.7 | 0.00 | 0.06 | 0.00 | 72 | 1015.4 |
| 20260502221455 | 43 | 187 | 0.9 | 1.7 | 0.00 | 0.06 | 0.00 | 71 | 1015.4 |
| 20260502221354 | 43 | 188 | 0.0 | 1.7 | 0.00 | 0.06 | 0.00 | 71 | 1015.5 |
| 20260502221254 | 43 | 319 | 0.0 | 1.7 | 0.00 | 0.06 | 0.00 | 71 | 1015.5 |
| 20260502220955 | 43 | 257 | 1.7 | 1.7 | 0.00 | 0.06 | 0.00 | 72 | 1015.4 |
| 20260502220755 | 43 | 350 | 0.0 | 3.5 | 0.00 | 0.06 | 0.00 | 72 | 1015.4 |
| 20260502220555 | 43 | 331 | 0.0 | 3.5 | 0.00 | 0.06 | 0.00 | 71 | 1015.4 |
| 20260502220455 | 43 | 331 | 0.9 | 3.5 | 0.00 | 0.06 | 0.00 | 71 | 1015.4 |
| 20260502220255 | 44 | 254 | 0.0 | 3.5 | 0.00 | 0.06 | 0.00 | 72 | 1015.4 |
| 20260502220155 | 44 | 327 | 0.0 | 3.5 | 0.00 | 0.06 | 0.00 | 72 | 1015.4 |
| 20260502220055 | 44 | 327 | 0.0 | 3.5 | 0.00 | 0.06 | 0.00 | 71 | 1015.4 |
| 20260502215955 | 44 | 327 | 1.7 | 3.5 | 0.00 | 0.06 | 0.00 | 71 | 1015.4 |
| 20260502215855 | 44 | 261 | 0.9 | 2.6 | 0.00 | 0.06 | 0.00 | 72 | 1015.4 |
| 20260502215755 | 44 | 5 | 1.7 | 2.6 | 0.00 | 0.06 | 0.00 | 70 | 1015.3 |
| 20260502215455 | 44 | 345 | 0.9 | 3.5 | 0.00 | 0.06 | 0.00 | 71 | 1015.3 |
| 20260502215354 | 44 | 345 | 0.9 | 3.5 | 0.00 | 0.06 | 0.00 | 71 | 1015.4 |
| 20260502215154 | 44 | 324 | 0.9 | 3.5 | 0.00 | 0.06 | 0.00 | 71 | 1015.2 |
| 20260502214955 | 43 | 333 | 0.9 | 3.5 | 0.00 | 0.06 | 0.00 | 71 | 1015.4 |
| 20260502214854 | 43 | 333 | 0.0 | 3.5 | 0.00 | 0.06 | 0.00 | 70 | 1015.3 |
| 20260502214755 | 44 | 47 | 1.7 | 3.5 | 0.00 | 0.06 | 0.00 | 71 | 1015.3 |
| 20260502214654 | 44 | 11 | 0.9 | 5.2 | 0.00 | 0.06 | 0.00 | 72 | 1015.2 |
| 20260502214555 | 43 | 11 | 0.9 | 5.2 | 0.00 | 0.06 | 0.00 | 71 | 1015.1 |
| 20260502214454 | 43 | 16 | 0.9 | 5.2 | 0.00 | 0.06 | 0.00 | 71 | 1015.3 |
| 20260502214355 | 43 | 16 | 1.7 | 5.2 | 0.00 | 0.06 | 0.00 | 70 | 1015.2 |
| 20260502214255 | 43 | 210 | 0.0 | 5.2 | 0.00 | 0.06 | 0.00 | 70 | 1015.2 |
| 20260502214055 | 43 | 317 | 0.9 | 5.2 | 0.00 | 0.06 | 0.00 | 70 | 1015.3 |
| 20260502213955 | 44 | 296 | 0.9 | 5.2 | 0.00 | 0.06 | 0.00 | 70 | 1015.3 |
| 20260502213854 | 44 | 5 | 0.9 | 5.2 | 0.00 | 0.06 | 0.00 | 71 | 1015.3 |
| 20260502213755 | 44 | 19 | 4.3 | 5.2 | 0.00 | 0.06 | 0.00 | 69 | 1015.3 |
| 20260502213554 | 44 | 243 | 1.7 | 3.5 | 0.00 | 0.06 | 0.00 | 70 | 1015.3 |
| 20260502213455 | 44 | 301 | 0.0 | 3.5 | 0.00 | 0.06 | 0.00 | 71 | 1015.3 |
| 20260502213355 | 44 | 288 | 0.9 | 3.5 | 0.00 | 0.06 | 0.00 | 70 | 1015.3 |
| 20260502213254 | 44 | 200 | 0.0 | 3.5 | 0.00 | 0.06 | 0.00 | 69 | 1015.4 |
| 20260502213154 | 44 | 250 | 0.9 | 3.5 | 0.00 | 0.06 | 0.00 | 70 | 1015.3 |
| 20260502213055 | 44 | 263 | 1.7 | 2.6 | 0.00 | 0.06 | 0.00 | 73 | 1015.2 |
| 20260502212955 | 44 | 255 | 0.0 | 2.6 | 0.00 | 0.06 | 0.00 | 71 | 1015.3 |
| 20260502212855 | 44 | 272 | 0.0 | 2.6 | 0.00 | 0.06 | 0.00 | 70 | 1015.3 |
| 20260502212755 | 44 | 272 | 0.0 | 5.2 | 0.00 | 0.06 | 0.00 | 71 | 1015.3 |
| 20260502212656 | 44 | 272 | 1.7 | 5.2 | 0.00 | 0.06 | 0.00 | 70 | 1015.3 |
| 20260502212555 | 44 | 273 | 1.7 | 5.2 | 0.00 | 0.06 | 0.00 | 69 | 1015.2 |
| 20260502212355 | 44 | 336 | 2.6 | 5.2 | 0.00 | 0.06 | 0.00 | 68 | 1015.2 |
| 20260502212255 | 44 | 340 | 0.9 | 5.2 | 0.00 | 0.06 | 0.00 | 69 | 1015.2 |
| 20260502212155 | 44 | 267 | 0.9 | 5.2 | 0.00 | 0.06 | 0.00 | 68 | 1015.2 |
| 20260502212055 | 44 | 229 | 0.9 | 5.2 | 0.00 | 0.06 | 0.00 | 71 | 1015.2 |
| 20260502211955 | 44 | 348 | 2.6 | 5.2 | 0.00 | 0.06 | 0.00 | 68 | 1015.2 |
| 20260502211855 | 45 | 350 | 4.3 | 5.2 | 0.00 | 0.06 | 0.00 | 70 | 1015.2 |
| 20260502211754 | 44 | 225 | 1.7 | 5.2 | 0.00 | 0.06 | 0.00 | 70 | 1015.1 |
| 20260502211655 | 44 | 211 | 0.0 | 5.2 | 0.00 | 0.06 | 0.00 | 70 | 1015.1 |
| 20260502211354 | 44 | 318 | 0.9 | 5.2 | 0.00 | 0.06 | 0.00 | 68 | 1015.2 |
| 20260502211255 | 44 | 275 | 0.9 | 5.2 | 0.00 | 0.06 | 0.00 | 68 | 1015.0 |
| 20260502211155 | 44 | 17 | 1.7 | 5.2 | 0.00 | 0.06 | 0.00 | 70 | 1015.0 |
| 20260502211055 | 44 | 235 | 1.7 | 5.2 | 0.00 | 0.06 | 0.00 | 68 | 1015.0 |
| 20260502210954 | 44 | 15 | 0.0 | 5.2 | 0.00 | 0.06 | 0.00 | 69 | 1015.1 |
| 20260502210855 | 44 | 26 | 1.7 | 5.2 | 0.00 | 0.06 | 0.00 | 69 | 1015.0 |
| 20260502210755 | 44 | 288 | 0.9 | 5.2 | 0.00 | 0.06 | 0.00 | 68 | 1015.0 |
| 20260502210656 | 44 | 239 | 0.9 | 5.2 | 0.00 | 0.06 | 0.00 | 68 | 1015.0 |
| 20260502210555 | 45 | 284 | 1.7 | 5.2 | 0.00 | 0.06 | 0.00 | 66 | 1015.1 |
| 20260502210454 | 45 | 53 | 0.9 | 5.2 | 0.00 | 0.06 | 0.00 | 67 | 1015.1 |
| 20260502210354 | 45 | 350 | 3.5 | 4.3 | 0.00 | 0.06 | 0.00 | 69 | 1014.9 |
| 20260502210256 | 45 | 30 | 0.9 | 3.5 | 0.00 | 0.06 | 0.00 | 70 | 1014.9 |
| 20260502210154 | 45 | 50 | 0.9 | 3.5 | 0.00 | 0.06 | 0.00 | 71 | 1015.1 |
| 20260502210055 | 45 | 56 | 0.0 | 3.5 | 0.00 | 0.06 | 0.00 | 70 | 1014.9 |
| 20260502205957 | 45 | 355 | 0.0 | 3.5 | 0.00 | 0.06 | 0.00 | 72 | 1014.9 |
| 20260502205857 | 44 | 355 | 0.9 | 5.2 | 0.00 | 0.09 | 0.00 | 73 | 1015.0 |
| 20260502205755 | 44 | 265 | 0.9 | 5.2 | 0.00 | 0.09 | 0.00 | 70 | 1015.1 |
| 20260502205455 | 44 | 253 | 0.9 | 5.2 | 0.00 | 0.09 | 0.00 | 69 | 1015.0 |
| 20260502205355 | 44 | 288 | 1.7 | 5.2 | 0.00 | 0.09 | 0.00 | 69 | 1015.0 |
| 20260502205256 | 44 | 349 | 1.7 | 7.8 | 0.00 | 0.09 | 0.00 | 70 | 1015.2 |
| 20260502205156 | 44 | 310 | 1.7 | 7.8 | 0.00 | 0.09 | 0.00 | 68 | 1015.1 |
| 20260502205056 | 44 | 343 | 1.7 | 7.8 | 0.00 | 0.09 | 0.00 | 67 | 1015.0 |
| 20260502204957 | 44 | 355 | 2.6 | 7.8 | 0.00 | 0.09 | 0.00 | 68 | 1015.0 |
| 20260502204856 | 44 | 69 | 0.9 | 7.8 | 0.00 | 0.09 | 0.00 | 68 | 1015.1 |
| 20260502204656 | 44 | 34 | 0.9 | 7.8 | 0.00 | 0.09 | 0.00 | 69 | 1015.0 |
| 20260502204555 | 44 | 265 | 1.7 | 7.8 | 0.00 | 0.09 | 0.00 | 69 | 1015.0 |
| 20260502204455 | 44 | 351 | 1.7 | 7.8 | 0.00 | 0.09 | 0.00 | 68 | 1015.0 |
| 20260502204355 | 44 | 327 | 0.9 | 7.0 | 0.00 | 0.09 | 0.00 | 68 | 1015.0 |
| 20260502204056 | 44 | 22 | 2.6 | 5.2 | 0.00 | 0.09 | 0.00 | 69 | 1015.1 |
| 20260502203955 | 44 | 348 | 1.7 | 5.2 | 0.00 | 0.09 | 0.00 | 69 | 1015.2 |
| 20260502203856 | 44 | 311 | 1.7 | 5.2 | 0.00 | 0.09 | 0.00 | 71 | 1015.2 |
| 20260502203657 | 44 | 276 | 0.9 | 5.2 | 0.00 | 0.09 | 0.00 | 69 | 1015.2 |
| 20260502203556 | 44 | 5 | 3.5 | 5.2 | 0.00 | 0.09 | 0.00 | 69 | 1015.1 |
| 20260502203456 | 44 | 328 | 1.7 | 5.2 | 0.00 | 0.09 | 0.00 | 70 | 1015.1 |
| 20260502203356 | 44 | 19 | 3.5 | 4.3 | 0.00 | 0.09 | 0.00 | 69 | 1015.1 |
| 20260502203256 | 44 | 50 | 0.9 | 4.3 | 0.00 | 0.09 | 0.00 | 69 | 1015.1 |
| 20260502203157 | 44 | 5 | 1.7 | 4.3 | 0.00 | 0.09 | 0.00 | 68 | 1015.1 |
| 20260502202955 | 44 | 132 | 1.7 | 4.3 | 0.00 | 0.09 | 0.00 | 69 | 1015.0 |
| 20260502202855 | 44 | 46 | 2.6 | 4.3 | 0.00 | 0.09 | 0.00 | 67 | 1015.0 |
| 20260502202756 | 45 | 263 | 2.6 | 4.3 | 0.00 | 0.09 | 0.00 | 66 | 1015.1 |
| 20260502202556 | 45 | 317 | 1.7 | 4.3 | 0.00 | 0.09 | 0.00 | 66 | 1015.1 |
| 20260502202356 | 45 | 330 | 0.9 | 4.3 | 0.00 | 0.09 | 0.00 | 66 | 1015.1 |
| 20260502202155 | 45 | 282 | 1.7 | 4.3 | 0.00 | 0.09 | 0.00 | 67 | 1015.1 |
| 20260502202056 | 45 | 267 | 1.7 | 4.3 | 0.00 | 0.09 | 0.00 | 69 | 1015.0 |
| 20260502201956 | 45 | 189 | 0.9 | 5.2 | 0.00 | 0.09 | 0.00 | 70 | 1015.0 |
| 20260502201756 | 45 | 346 | 1.7 | 8.7 | 0.00 | 0.09 | 0.00 | 70 | 1015.1 |
| 20260502201656 | 45 | 280 | 0.9 | 8.7 | 0.00 | 0.09 | 0.00 | 68 | 1015.1 |
| 20260502201456 | 45 | 257 | 0.9 | 8.7 | 0.00 | 0.09 | 0.00 | 67 | 1015.0 |
| 20260502201356 | 45 | 302 | 1.7 | 8.7 | 0.00 | 0.09 | 0.00 | 66 | 1015.1 |
| 20260502201256 | 46 | 321 | 2.6 | 8.7 | 0.00 | 0.09 | 0.00 | 68 | 1015.0 |
| 20260502201055 | 46 | 5 | 1.7 | 8.7 | 0.00 | 0.09 | 0.00 | 67 | 1014.9 |
| 20260502200956 | 46 | 341 | 4.3 | 8.7 | 0.00 | 0.09 | 0.00 | 68 | 1015.1 |
| 20260502200655 | 45 | 26 | 0.9 | 7.8 | 0.00 | 0.09 | 0.00 | 69 | 1015.0 |
| 20260502200556 | 45 | 30 | 2.6 | 7.8 | 0.00 | 0.09 | 0.00 | 69 | 1015.0 |
| 20260502200356 | 46 | 360 | 5.2 | 6.1 | 0.00 | 0.09 | 0.00 | 69 | 1015.0 |
| 20260502200255 | 46 | 19 | 1.7 | 4.3 | 0.00 | 0.09 | 0.00 | 71 | 1015.1 |
| 20260502200155 | 46 | 242 | 0.0 | 4.3 | 0.00 | 0.09 | 0.00 | 70 | 1015.0 |
| 20260502195855 | 45 | 237 | 1.7 | 4.3 | 0.00 | 0.10 | 0.00 | 70 | 1015.3 |
| 20260502195755 | 45 | 268 | 2.6 | 4.3 | 0.00 | 0.10 | 0.00 | 71 | 1015.2 |
| 20260502195655 | 45 | 258 | 1.7 | 4.3 | 0.00 | 0.10 | 0.00 | 71 | 1015.2 |
| 20260502195554 | 45 | 340 | 3.5 | 5.2 | 0.00 | 0.10 | 0.00 | 72 | 1015.2 |
| 20260502195455 | 45 | 277 | 0.0 | 5.2 | 0.00 | 0.10 | 0.00 | 70 | 1015.2 |
| 20260502195355 | 44 | 281 | 0.0 | 5.2 | 0.00 | 0.10 | 0.00 | 73 | 1015.2 |
| 20260502195255 | 44 | 272 | 2.6 | 5.2 | 0.00 | 0.10 | 0.00 | 74 | 1015.2 |
| 20260502195154 | 44 | 171 | 1.7 | 5.2 | 0.00 | 0.10 | 0.00 | 72 | 1015.1 |
| 20260502195055 | 43 | 50 | 0.9 | 5.2 | 0.00 | 0.10 | 0.00 | 73 | 1015.2 |
| 20260502194856 | 43 | 18 | 1.7 | 5.2 | 0.00 | 0.10 | 0.00 | 71 | 1015.2 |
| 20260502194755 | 43 | 19 | 2.6 | 5.2 | 0.00 | 0.10 | 0.00 | 72 | 1015.3 |
| 20260502194654 | 43 | 360 | 1.7 | 5.2 | 0.00 | 0.10 | 0.00 | 72 | 1015.2 |
| 20260502194555 | 43 | 24 | 0.0 | 5.2 | 0.00 | 0.10 | 0.00 | 75 | 1015.2 |
| 20260502194455 | 43 | 5 | 0.9 | 5.2 | 0.00 | 0.10 | 0.00 | 72 | 1015.2 |
| 20260502194355 | 43 | 19 | 2.6 | 4.3 | 0.00 | 0.10 | 0.00 | 73 | 1015.2 |
| 20260502194256 | 43 | 35 | 3.5 | 4.3 | 0.00 | 0.10 | 0.00 | 74 | 1015.2 |
| 20260502194155 | 43 | 19 | 0.9 | 4.3 | 0.00 | 0.10 | 0.00 | 73 | 1015.3 |
| 20260502194054 | 43 | 323 | 0.9 | 4.3 | 0.00 | 0.10 | 0.00 | 72 | 1015.2 |
| 20260502193954 | 43 | 346 | 0.9 | 4.3 | 0.00 | 0.10 | 0.00 | 75 | 1015.3 |
| 20260502193854 | 43 | 279 | 0.0 | 4.3 | 0.00 | 0.10 | 0.00 | 75 | 1015.3 |
| 20260502193754 | 43 | 279 | 0.0 | 4.3 | 0.00 | 0.10 | 0.00 | 74 | 1015.3 |
| 20260502193654 | 43 | 67 | 1.7 | 4.3 | 0.00 | 0.10 | 0.00 | 74 | 1015.4 |
| 20260502193554 | 43 | 18 | 0.9 | 4.3 | 0.00 | 0.10 | 0.00 | 73 | 1015.3 |
| 20260502193455 | 43 | 49 | 2.6 | 2.6 | 0.00 | 0.10 | 0.00 | 74 | 1015.3 |
| 20260502193255 | 43 | 336 | 0.9 | 3.5 | 0.00 | 0.10 | 0.00 | 75 | 1015.4 |
| 20260502193155 | 43 | 252 | 0.0 | 3.5 | 0.00 | 0.10 | 0.00 | 74 | 1015.4 |
| 20260502193054 | 43 | 252 | 0.9 | 3.5 | 0.00 | 0.10 | 0.00 | 74 | 1015.5 |
| 20260502192855 | 43 | 5 | 0.9 | 4.3 | 0.00 | 0.10 | 0.00 | 73 | 1015.4 |
| 20260502192754 | 43 | 260 | 0.9 | 4.3 | 0.00 | 0.10 | 0.00 | 74 | 1015.4 |
| 20260502192654 | 43 | 286 | 0.0 | 4.3 | 0.00 | 0.10 | 0.00 | 74 | 1015.5 |
| 20260502192555 | 43 | 238 | 0.9 | 4.3 | 0.00 | 0.10 | 0.00 | 74 | 1015.4 |
| 20260502192454 | 43 | 324 | 1.7 | 5.2 | 0.00 | 0.10 | 0.00 | 74 | 1015.4 |
| 20260502192356 | 43 | 5 | 1.7 | 5.2 | 0.00 | 0.10 | 0.00 | 74 | 1015.5 |
| 20260502192255 | 43 | 355 | 1.7 | 5.2 | 0.00 | 0.10 | 0.00 | 74 | 1015.5 |
| 20260502192155 | 43 | 290 | 0.9 | 5.2 | 0.00 | 0.10 | 0.00 | 73 | 1015.4 |
| 20260502192056 | 43 | 193 | 0.9 | 5.2 | 0.00 | 0.10 | 0.00 | 73 | 1015.5 |
| 20260502191955 | 43 | 314 | 1.7 | 5.2 | 0.00 | 0.10 | 0.00 | 74 | 1015.5 |
| 20260502191854 | 44 | 300 | 0.9 | 5.2 | 0.00 | 0.10 | 0.00 | 74 | 1015.5 |
| 20260502191756 | 44 | 300 | 0.9 | 5.2 | 0.00 | 0.10 | 0.00 | 73 | 1015.5 |
| 20260502191654 | 44 | 268 | 2.6 | 5.2 | 0.00 | 0.10 | 0.00 | 73 | 1015.5 |
| 20260502191555 | 44 | 301 | 0.9 | 2.6 | 0.00 | 0.10 | 0.00 | 73 | 1015.5 |
| 20260502191455 | 44 | 239 | 0.9 | 2.6 | 0.00 | 0.10 | 0.00 | 73 | 1015.5 |
| 20260502191354 | 44 | 236 | 1.7 | 2.6 | 0.00 | 0.10 | 0.00 | 72 | 1015.4 |
| 20260502191254 | 44 | 238 | 1.7 | 2.6 | 0.00 | 0.10 | 0.00 | 72 | 1015.5 |
| 20260502191154 | 44 | 5 | 0.0 | 2.6 | 0.00 | 0.10 | 0.00 | 72 | 1015.5 |
| 20260502190954 | 44 | 296 | 0.0 | 2.6 | 0.00 | 0.10 | 0.00 | 73 | 1015.5 |
| 20260502190855 | 44 | 300 | 0.9 | 5.2 | 0.00 | 0.10 | 0.00 | 72 | 1015.5 |
| 20260502190754 | 44 | 307 | 0.0 | 5.2 | 0.00 | 0.10 | 0.00 | 71 | 1015.6 |
| 20260502190654 | 44 | 306 | 0.9 | 5.2 | 0.00 | 0.10 | 0.00 | 71 | 1015.5 |
| 20260502190555 | 44 | 251 | 0.9 | 5.2 | 0.00 | 0.10 | 0.00 | 72 | 1015.5 |
| 20260502190454 | 44 | 215 | 0.9 | 5.2 | 0.00 | 0.10 | 0.00 | 74 | 1015.6 |
| 20260502190354 | 44 | 300 | 1.7 | 5.2 | 0.00 | 0.10 | 0.00 | 72 | 1015.5 |
| 20260502190255 | 44 | 5 | 0.0 | 5.2 | 0.00 | 0.10 | 0.00 | 71 | 1015.5 |
| 20260502190154 | 44 | 28 | 1.7 | 5.2 | 0.00 | 0.10 | 0.00 | 72 | 1015.5 |
| 20260502190056 | 44 | 17 | 3.5 | 5.2 | 0.00 | 0.10 | 0.00 | 71 | 1015.5 |
| 20260502185956 | 44 | 5 | 4.3 | 5.2 | 0.00 | 0.10 | 0.00 | 73 | 1015.5 |
| 20260502185754 | 44 | 50 | 5.2 | 7.8 | 0.00 | 0.10 | 0.00 | 71 | 1015.6 |
| 20260502185655 | 44 | 246 | 0.9 | 7.8 | 0.00 | 0.10 | 0.00 | 71 | 1015.5 |
| 20260502185555 | 44 | 284 | 0.9 | 7.8 | 0.00 | 0.10 | 0.00 | 70 | 1015.6 |
| 20260502185455 | 44 | 328 | 1.7 | 7.8 | 0.00 | 0.10 | 0.00 | 72 | 1015.6 |